Location: De Greiden
(52.9496°N, 5.9137°E)
Time: 01:56:20
(UTC+00:00)

Cosmos 2263 Rocket - Pass Details

Date: 24 January 2021
Orbit: 825 x 847 km, 71.0° (Epoch: 26 February)

Event Time Altitude Azimuth Distance (km) Brightness Sun altitude
Rises 17:52:36 0° 244° (WSW) 3,401 6.9 -15.7°
Reaches altitude 10° 17:55:18 10° 254° (WSW) 2,467 6.0 -16.1°
Maximum altitude 18:00:23 33° 318° (NW) 1,389 3.6 -16.8°
Drops below altitude 10° 18:05:28 10° 22° (NNE) 2,465 4.3 -17.6°
Enters shadow 18:05:55 - 24° (NNE) 2,612 4.4 -17.6°
